Year,Month,Day,Hour,Minute,Value (Times are PST for temperature in C)
2013,06,16,00,00,15.50
2013,06,16,00,01,15.50
2013,06,16,00,02,15.50
2013,06,16,00,03,15.50
2013,06,16,00,04,15.50
2013,06,16,00,05,15.50
2013,06,16,00,06,15.50
2013,06,16,00,07,15.50
2013,06,16,00,08,15.50
2013,06,16,00,09,15.50
2013,06,16,00,10,15.40
2013,06,16,00,11,15.40
2013,06,16,00,12,15.40
2013,06,16,00,13,15.30
2013,06,16,00,14,15.30
2013,06,16,00,15,15.30
2013,06,16,00,16,15.30
2013,06,16,00,17,15.30
2013,06,16,00,18,15.30
2013,06,16,00,19,15.30
2013,06,16,00,20,15.30
2013,06,16,00,21,15.30
2013,06,16,00,22,15.30
2013,06,16,00,23,15.20
2013,06,16,00,24,15.20
2013,06,16,00,25,15.20
2013,06,16,00,26,15.20
2013,06,16,00,27,15.20
2013,06,16,00,28,15.10
2013,06,16,00,29,15.10
2013,06,16,00,30,15.10
2013,06,16,00,31,15.10
2013,06,16,00,32,15.00
2013,06,16,00,33,15.00
2013,06,16,00,34,15.00
2013,06,16,00,35,14.90
2013,06,16,00,36,14.90
2013,06,16,00,37,14.90
2013,06,16,00,38,14.80
2013,06,16,00,39,14.80
2013,06,16,00,40,14.80
2013,06,16,00,41,14.80
2013,06,16,00,42,14.80
2013,06,16,00,43,14.70
2013,06,16,00,44,14.70
2013,06,16,00,45,14.70
2013,06,16,00,46,14.60
2013,06,16,00,47,14.60
2013,06,16,00,48,14.60
2013,06,16,00,49,14.60
2013,06,16,00,50,14.60
2013,06,16,00,51,14.70
2013,06,16,00,52,14.80
2013,06,16,00,53,14.90
2013,06,16,00,54,15.00
2013,06,16,00,55,15.10
2013,06,16,00,56,15.30
2013,06,16,00,57,15.40
2013,06,16,00,58,15.60
2013,06,16,00,59,15.70
2013,06,16,01,00,15.80
2013,06,16,01,01,15.90
2013,06,16,01,02,15.90
2013,06,16,01,03,15.90
2013,06,16,01,04,15.90
2013,06,16,01,05,15.90
2013,06,16,01,06,15.90
2013,06,16,01,07,15.90
2013,06,16,01,08,15.90
2013,06,16,01,09,15.90
2013,06,16,01,10,15.90
2013,06,16,01,11,15.80
2013,06,16,01,12,15.80
2013,06,16,01,13,15.70
2013,06,16,01,14,15.70
2013,06,16,01,15,15.60
2013,06,16,01,16,15.50
2013,06,16,01,17,15.30
2013,06,16,01,18,15.20
2013,06,16,01,19,15.20
2013,06,16,01,20,15.10
2013,06,16,01,21,15.00
2013,06,16,01,22,14.90
2013,06,16,01,23,14.80
2013,06,16,01,24,14.80
2013,06,16,01,25,14.70
2013,06,16,01,26,14.60
2013,06,16,01,27,14.60
2013,06,16,01,28,14.50
2013,06,16,01,29,14.50
2013,06,16,01,30,14.40
2013,06,16,01,31,14.30
2013,06,16,01,32,14.30
2013,06,16,01,33,14.20
2013,06,16,01,34,14.20
2013,06,16,01,35,14.10
2013,06,16,01,36,14.10
2013,06,16,01,37,14.00
2013,06,16,01,38,14.00
2013,06,16,01,39,14.00
2013,06,16,01,40,13.90
2013,06,16,01,41,13.90
2013,06,16,01,42,13.80
2013,06,16,01,43,13.80
2013,06,16,01,44,13.80
2013,06,16,01,45,13.70
2013,06,16,01,46,13.70
2013,06,16,01,47,13.70
2013,06,16,01,48,13.70
2013,06,16,01,49,13.70
2013,06,16,01,50,13.70
2013,06,16,01,51,13.60
2013,06,16,01,52,13.60
2013,06,16,01,53,13.60
2013,06,16,01,54,13.60
2013,06,16,01,55,13.50
2013,06,16,01,56,13.50
2013,06,16,01,57,13.50
2013,06,16,01,58,13.40
2013,06,16,01,59,13.40
2013,06,16,02,00,13.30
2013,06,16,02,01,13.30
2013,06,16,02,02,13.30
2013,06,16,02,03,13.30
2013,06,16,02,04,13.30
2013,06,16,02,05,13.30
2013,06,16,02,06,13.30
2013,06,16,02,07,13.30
2013,06,16,02,08,13.30
2013,06,16,02,09,13.30
2013,06,16,02,10,13.40
2013,06,16,02,11,13.40
2013,06,16,02,12,13.40
2013,06,16,02,13,13.50
2013,06,16,02,14,13.50
2013,06,16,02,15,13.60
2013,06,16,02,16,13.70
2013,06,16,02,17,13.70
2013,06,16,02,18,13.70
2013,06,16,02,19,13.80
2013,06,16,02,20,13.90
2013,06,16,02,21,14.00
2013,06,16,02,22,14.10
2013,06,16,02,23,14.20
2013,06,16,02,24,14.20
2013,06,16,02,25,14.20
2013,06,16,02,26,14.20
2013,06,16,02,27,14.20
2013,06,16,02,28,14.20
2013,06,16,02,29,14.20
2013,06,16,02,30,14.20
2013,06,16,02,31,14.30
2013,06,16,02,32,14.20
2013,06,16,02,33,14.20
2013,06,16,02,34,14.20
2013,06,16,02,35,14.20
2013,06,16,02,36,14.20
2013,06,16,02,37,14.20
2013,06,16,02,38,14.10
2013,06,16,02,39,14.10
2013,06,16,02,40,14.10
2013,06,16,02,41,14.10
2013,06,16,02,42,14.10
2013,06,16,02,43,14.10
2013,06,16,02,44,14.10
2013,06,16,02,45,14.10
2013,06,16,02,46,14.00
2013,06,16,02,47,14.00
2013,06,16,02,48,14.00
2013,06,16,02,49,13.90
2013,06,16,02,50,13.90
2013,06,16,02,51,13.80
2013,06,16,02,52,13.80
2013,06,16,02,53,13.80
2013,06,16,02,54,13.70
2013,06,16,02,55,13.70
2013,06,16,02,56,13.70
2013,06,16,02,57,13.60
2013,06,16,02,58,13.60
2013,06,16,02,59,13.60
2013,06,16,03,00,13.60
2013,06,16,03,01,13.50
2013,06,16,03,02,13.50
2013,06,16,03,03,13.50
2013,06,16,03,04,13.50
2013,06,16,03,05,13.40
2013,06,16,03,06,13.40
2013,06,16,03,07,13.30
2013,06,16,03,08,13.30
2013,06,16,03,09,13.30
2013,06,16,03,10,13.30
2013,06,16,03,11,13.20
2013,06,16,03,12,13.20
2013,06,16,03,13,13.10
2013,06,16,03,14,13.10
2013,06,16,03,15,13.10
2013,06,16,03,16,13.00
2013,06,16,03,17,13.00
2013,06,16,03,18,13.00
2013,06,16,03,19,12.90
2013,06,16,03,20,12.90
2013,06,16,03,21,12.90
2013,06,16,03,22,12.90
2013,06,16,03,23,12.90
2013,06,16,03,24,12.90
2013,06,16,03,25,12.80
2013,06,16,03,26,12.80
2013,06,16,03,27,12.80
2013,06,16,03,28,12.80
2013,06,16,03,29,12.80
2013,06,16,03,30,12.80
2013,06,16,03,31,12.70
2013,06,16,03,32,12.70
2013,06,16,03,33,12.60
2013,06,16,03,34,12.60
2013,06,16,03,35,12.60
2013,06,16,03,36,12.50
2013,06,16,03,37,12.50
2013,06,16,03,38,12.50
2013,06,16,03,39,12.50
2013,06,16,03,40,12.50
2013,06,16,03,41,12.50
2013,06,16,03,42,12.40
2013,06,16,03,43,12.40
2013,06,16,03,44,12.40
2013,06,16,03,45,12.40
2013,06,16,03,46,12.30
2013,06,16,03,47,12.30
2013,06,16,03,48,12.30
2013,06,16,03,49,12.30
2013,06,16,03,50,12.30
2013,06,16,03,51,12.30
2013,06,16,03,52,12.30
2013,06,16,03,53,12.30
2013,06,16,03,54,12.30
2013,06,16,03,55,12.30
2013,06,16,03,56,12.30
2013,06,16,03,57,12.30
2013,06,16,03,58,12.30
2013,06,16,03,59,12.30
2013,06,16,04,00,12.30
2013,06,16,04,01,12.30
2013,06,16,04,02,12.30
2013,06,16,04,03,12.30
2013,06,16,04,04,12.30
2013,06,16,04,05,12.30
2013,06,16,04,06,12.30
2013,06,16,04,07,12.30
2013,06,16,04,08,12.30
2013,06,16,04,09,12.30
2013,06,16,04,10,12.40
2013,06,16,04,11,12.60
2013,06,16,04,12,12.70
2013,06,16,04,13,12.90
2013,06,16,04,14,13.00
2013,06,16,04,15,13.10
2013,06,16,04,16,13.20
2013,06,16,04,17,13.30
2013,06,16,04,18,13.40
2013,06,16,04,19,13.40
2013,06,16,04,20,13.40
2013,06,16,04,21,13.40
2013,06,16,04,22,13.30
2013,06,16,04,23,13.30
2013,06,16,04,24,13.30
2013,06,16,04,25,13.20
2013,06,16,04,26,13.10
2013,06,16,04,27,13.00
2013,06,16,04,28,13.00
2013,06,16,04,29,12.90
2013,06,16,04,30,12.80
2013,06,16,04,31,12.80
2013,06,16,04,32,12.80
2013,06,16,04,33,12.80
2013,06,16,04,34,12.70
2013,06,16,04,35,12.70
2013,06,16,04,36,12.70
2013,06,16,04,37,12.60
2013,06,16,04,38,12.60
2013,06,16,04,39,12.60
2013,06,16,04,40,12.50
2013,06,16,04,41,12.50
2013,06,16,04,42,12.50
2013,06,16,04,43,12.40
2013,06,16,04,44,12.40
2013,06,16,04,45,12.40
2013,06,16,04,46,12.40
2013,06,16,04,47,12.30
2013,06,16,04,48,12.30
2013,06,16,04,49,12.30
2013,06,16,04,50,12.30
2013,06,16,04,51,12.20
2013,06,16,04,52,12.20
2013,06,16,04,53,12.20
2013,06,16,04,54,12.20
2013,06,16,04,55,12.20
2013,06,16,04,56,12.20
2013,06,16,04,57,12.20
2013,06,16,04,58,12.20
2013,06,16,04,59,12.20
2013,06,16,05,00,12.10
2013,06,16,05,01,12.10
2013,06,16,05,02,12.10
2013,06,16,05,03,12.10
2013,06,16,05,04,12.10
2013,06,16,05,05,12.00
2013,06,16,05,06,12.00
2013,06,16,05,07,12.00
2013,06,16,05,08,12.00
2013,06,16,05,09,12.00
2013,06,16,05,10,12.00
2013,06,16,05,11,12.00
2013,06,16,05,12,12.00
2013,06,16,05,13,12.00
2013,06,16,05,14,12.00
2013,06,16,05,15,12.00
2013,06,16,05,16,12.00
2013,06,16,05,17,12.00
2013,06,16,05,18,12.00
2013,06,16,05,19,12.00
2013,06,16,05,20,12.00
2013,06,16,05,21,12.00
2013,06,16,05,22,12.00
2013,06,16,05,23,12.00
2013,06,16,05,24,12.00
2013,06,16,05,25,12.10
2013,06,16,05,26,12.10
2013,06,16,05,27,12.20
2013,06,16,05,28,12.30
2013,06,16,05,29,12.30
2013,06,16,05,30,12.30
2013,06,16,05,31,12.30
2013,06,16,05,32,12.30
2013,06,16,05,33,12.30
2013,06,16,05,34,12.40
2013,06,16,05,35,12.40
2013,06,16,05,36,12.50
2013,06,16,05,37,12.50
2013,06,16,05,38,12.50
2013,06,16,05,39,12.60
2013,06,16,05,40,12.60
2013,06,16,05,41,12.70
2013,06,16,05,42,12.70
2013,06,16,05,43,12.80
2013,06,16,05,44,12.80
2013,06,16,05,45,12.90
2013,06,16,05,46,13.00
2013,06,16,05,47,13.10
2013,06,16,05,48,13.20
2013,06,16,05,49,13.30
2013,06,16,05,50,13.40
2013,06,16,05,51,13.50
2013,06,16,05,52,13.60
2013,06,16,05,53,13.70
2013,06,16,05,54,13.70
2013,06,16,05,55,13.80
2013,06,16,05,56,13.90
2013,06,16,05,57,13.90
2013,06,16,05,58,14.00
2013,06,16,05,59,14.00
2013,06,16,06,00,14.10
2013,06,16,06,01,14.20
2013,06,16,06,02,14.20
2013,06,16,06,03,14.20
2013,06,16,06,04,14.20
2013,06,16,06,05,14.30
2013,06,16,06,06,14.30
2013,06,16,06,07,14.30
2013,06,16,06,08,14.40
2013,06,16,06,09,14.40
2013,06,16,06,10,14.40
2013,06,16,06,11,14.40
2013,06,16,06,12,14.40
2013,06,16,06,13,14.40
2013,06,16,06,14,14.40
2013,06,16,06,15,14.40
2013,06,16,06,16,14.40
2013,06,16,06,17,14.40
2013,06,16,06,18,14.40
2013,06,16,06,19,14.40
2013,06,16,06,20,14.40
2013,06,16,06,21,14.40
2013,06,16,06,22,14.50
2013,06,16,06,23,14.50
2013,06,16,06,24,14.50
2013,06,16,06,25,14.50
2013,06,16,06,26,14.60
2013,06,16,06,27,14.60
2013,06,16,06,28,14.60
2013,06,16,06,29,14.70
2013,06,16,06,30,14.70
2013,06,16,06,31,14.80
2013,06,16,06,32,14.80
2013,06,16,06,33,14.80
2013,06,16,06,34,14.90
2013,06,16,06,35,15.00
2013,06,16,06,36,15.00
2013,06,16,06,37,15.00
2013,06,16,06,38,14.90
2013,06,16,06,39,14.80
2013,06,16,06,40,14.80
2013,06,16,06,41,14.80
2013,06,16,06,42,14.80
2013,06,16,06,43,14.70
2013,06,16,06,44,14.70
2013,06,16,06,45,14.60
2013,06,16,06,46,14.60
2013,06,16,06,47,14.50
2013,06,16,06,48,14.50
2013,06,16,06,49,14.50
2013,06,16,06,50,14.50
2013,06,16,06,51,14.50
2013,06,16,06,52,14.50
2013,06,16,06,53,14.60
2013,06,16,06,54,14.60
2013,06,16,06,55,14.70
2013,06,16,06,56,14.70
2013,06,16,06,57,14.80
2013,06,16,06,58,14.80
2013,06,16,06,59,14.80
2013,06,16,07,00,14.80
2013,06,16,07,01,14.80
2013,06,16,07,02,14.80
2013,06,16,07,03,14.90
2013,06,16,07,04,14.90
2013,06,16,07,05,14.90
2013,06,16,07,06,15.00
2013,06,16,07,07,15.00
2013,06,16,07,08,15.00
2013,06,16,07,09,15.10
2013,06,16,07,10,15.10
2013,06,16,07,11,15.10
2013,06,16,07,12,15.20
2013,06,16,07,13,15.20
2013,06,16,07,14,15.30
2013,06,16,07,15,15.30
2013,06,16,07,16,15.30
2013,06,16,07,17,15.40
2013,06,16,07,18,15.40
2013,06,16,07,19,15.50
2013,06,16,07,20,15.50
2013,06,16,07,21,15.50
2013,06,16,07,22,15.50
2013,06,16,07,23,15.50
2013,06,16,07,24,15.50
2013,06,16,07,25,15.40
2013,06,16,07,26,15.40
2013,06,16,07,27,15.30
2013,06,16,07,28,15.30
2013,06,16,07,29,15.30
2013,06,16,07,30,15.30
2013,06,16,07,31,15.30
2013,06,16,07,32,15.30
2013,06,16,07,33,15.30
2013,06,16,07,34,15.30
2013,06,16,07,35,15.30
2013,06,16,07,36,15.30
2013,06,16,07,37,15.40
2013,06,16,07,38,15.40
2013,06,16,07,39,15.40
2013,06,16,07,40,15.50
2013,06,16,07,41,15.50
2013,06,16,07,42,15.50
2013,06,16,07,43,15.60
2013,06,16,07,44,15.60
2013,06,16,07,45,15.70
2013,06,16,07,46,15.80
2013,06,16,07,47,15.80
2013,06,16,07,48,15.90
2013,06,16,07,49,16.00
2013,06,16,07,50,16.10
2013,06,16,07,51,16.20
2013,06,16,07,52,16.20
2013,06,16,07,53,16.30
2013,06,16,07,54,16.40
2013,06,16,07,55,16.40
2013,06,16,07,56,16.40
2013,06,16,07,57,16.40
2013,06,16,07,58,16.40
2013,06,16,07,59,16.40
2013,06,16,08,00,16.40
2013,06,16,08,01,16.50
2013,06,16,08,02,16.60
2013,06,16,08,03,16.60
2013,06,16,08,04,16.50
2013,06,16,08,05,16.40
2013,06,16,08,06,16.40
2013,06,16,08,07,16.40
2013,06,16,08,08,16.30
2013,06,16,08,09,16.20
2013,06,16,08,10,16.10
2013,06,16,08,11,16.10
2013,06,16,08,12,16.10
2013,06,16,08,13,16.10
2013,06,16,08,14,16.00
2013,06,16,08,15,15.90
2013,06,16,08,16,15.80
2013,06,16,08,17,15.80
2013,06,16,08,18,15.80
2013,06,16,08,19,15.80
2013,06,16,08,20,15.70
2013,06,16,08,21,15.60
2013,06,16,08,22,15.60
2013,06,16,08,23,15.60
2013,06,16,08,24,15.50
2013,06,16,08,25,15.50
2013,06,16,08,26,15.50
2013,06,16,08,27,15.60
2013,06,16,08,28,15.60
2013,06,16,08,29,15.60
2013,06,16,08,30,15.60
2013,06,16,08,31,15.60
2013,06,16,08,32,15.60
2013,06,16,08,33,15.60
2013,06,16,08,34,15.70
2013,06,16,08,35,15.70
2013,06,16,08,36,15.80
2013,06,16,08,37,15.80
2013,06,16,08,38,15.80
2013,06,16,08,39,15.80
2013,06,16,08,40,15.70
2013,06,16,08,41,15.70
2013,06,16,08,42,15.70
2013,06,16,08,43,15.70
2013,06,16,08,44,15.70
2013,06,16,08,45,15.70
2013,06,16,08,46,15.60
2013,06,16,08,47,15.60
2013,06,16,08,48,15.60
2013,06,16,08,49,15.50
2013,06,16,08,50,15.50
2013,06,16,08,51,15.50
2013,06,16,08,52,15.60
2013,06,16,08,53,15.60
2013,06,16,08,54,15.70
2013,06,16,08,55,15.70
2013,06,16,08,56,15.80
2013,06,16,08,57,15.80
2013,06,16,08,58,15.80
2013,06,16,08,59,15.90
2013,06,16,09,00,15.90
2013,06,16,09,01,15.90
2013,06,16,09,02,16.10
2013,06,16,09,03,16.10
2013,06,16,09,04,16.10
2013,06,16,09,05,16.10
2013,06,16,09,06,16.20
2013,06,16,09,07,16.20
2013,06,16,09,08,16.30
2013,06,16,09,09,16.30
2013,06,16,09,10,16.40
2013,06,16,09,11,16.60
2013,06,16,09,12,16.70
2013,06,16,09,13,16.70
2013,06,16,09,14,16.80
2013,06,16,09,15,16.90
2013,06,16,09,16,17.00
2013,06,16,09,17,17.00
2013,06,16,09,18,17.10
2013,06,16,09,19,17.20
2013,06,16,09,20,17.30
2013,06,16,09,21,17.40
2013,06,16,09,22,17.40
2013,06,16,09,23,17.50
2013,06,16,09,24,17.50
2013,06,16,09,25,17.60
2013,06,16,09,26,17.60
2013,06,16,09,27,17.60
2013,06,16,09,28,17.70
2013,06,16,09,29,17.70
2013,06,16,09,30,17.70
2013,06,16,09,31,17.70
2013,06,16,09,32,17.70
2013,06,16,09,33,17.70
2013,06,16,09,34,17.70
2013,06,16,09,35,17.70
2013,06,16,09,36,17.80
2013,06,16,09,37,17.80
2013,06,16,09,38,17.80
2013,06,16,09,39,17.80
2013,06,16,09,40,17.90
2013,06,16,09,41,17.90
2013,06,16,09,42,17.90
2013,06,16,09,43,17.90
2013,06,16,09,44,17.90
2013,06,16,09,45,17.90
2013,06,16,09,46,17.90
2013,06,16,09,47,17.90
2013,06,16,09,48,17.90
2013,06,16,09,49,17.90
2013,06,16,09,50,17.90
2013,06,16,09,51,17.90
2013,06,16,09,52,18.00
2013,06,16,09,53,18.10
2013,06,16,09,54,18.20
2013,06,16,09,55,18.20
2013,06,16,09,56,18.20
2013,06,16,09,57,18.20
2013,06,16,09,58,18.20
2013,06,16,09,59,18.30
2013,06,16,10,00,18.30
2013,06,16,10,01,18.20
2013,06,16,10,02,18.20
2013,06,16,10,03,18.20
2013,06,16,10,04,18.20
2013,06,16,10,05,18.10
2013,06,16,10,06,18.10
2013,06,16,10,07,18.10
2013,06,16,10,08,18.10
2013,06,16,10,09,18.10
2013,06,16,10,10,18.20
2013,06,16,10,11,18.20
2013,06,16,10,12,18.30
2013,06,16,10,13,18.40
2013,06,16,10,14,18.50
2013,06,16,10,15,18.60
2013,06,16,10,16,18.60
2013,06,16,10,17,18.70
2013,06,16,10,18,18.80
2013,06,16,10,19,18.80
2013,06,16,10,20,18.80
2013,06,16,10,21,18.80
2013,06,16,10,22,18.90
2013,06,16,10,23,18.90
2013,06,16,10,24,19.00
2013,06,16,10,25,19.10
2013,06,16,10,26,19.10
2013,06,16,10,27,19.10
2013,06,16,10,28,19.20
2013,06,16,10,29,19.30
2013,06,16,10,30,19.30
2013,06,16,10,31,19.40
2013,06,16,10,32,19.50
2013,06,16,10,33,19.60
2013,06,16,10,34,19.60
2013,06,16,10,35,19.70
2013,06,16,10,36,19.70
2013,06,16,10,37,19.70
2013,06,16,10,38,19.60
2013,06,16,10,39,19.60
2013,06,16,10,40,19.60
2013,06,16,10,41,19.60
2013,06,16,10,42,19.40
2013,06,16,10,43,19.40
2013,06,16,10,44,19.40
2013,06,16,10,45,19.40
2013,06,16,10,46,19.50
2013,06,16,10,47,19.50
2013,06,16,10,48,19.60
2013,06,16,10,49,19.60
2013,06,16,10,50,19.70
2013,06,16,10,51,19.60
2013,06,16,10,52,19.60
2013,06,16,10,53,19.70
2013,06,16,10,54,19.70
2013,06,16,10,55,19.70
2013,06,16,10,56,19.60
2013,06,16,10,57,19.60
2013,06,16,10,58,19.50
2013,06,16,10,59,19.60
2013,06,16,11,00,19.60
2013,06,16,11,01,19.70
2013,06,16,11,02,19.80
2013,06,16,11,03,20.00
2013,06,16,11,04,20.10
2013,06,16,11,05,20.20
2013,06,16,11,06,20.10
2013,06,16,11,07,20.00
2013,06,16,11,08,19.80
2013,06,16,11,09,19.90
2013,06,16,11,10,19.90
2013,06,16,11,11,19.90
2013,06,16,11,12,20.00
2013,06,16,11,13,20.10
2013,06,16,11,14,20.10
2013,06,16,11,15,20.10
2013,06,16,11,16,20.10
2013,06,16,11,17,20.10
2013,06,16,11,18,20.10
2013,06,16,11,19,19.90
2013,06,16,11,20,19.80
2013,06,16,11,21,19.70
2013,06,16,11,22,19.70
2013,06,16,11,23,19.60
2013,06,16,11,24,19.60
2013,06,16,11,25,19.50
2013,06,16,11,26,19.60
2013,06,16,11,27,19.60
2013,06,16,11,28,19.60
2013,06,16,11,29,19.50
2013,06,16,11,30,19.40
2013,06,16,11,31,19.40
2013,06,16,11,32,19.40
2013,06,16,11,33,19.40
2013,06,16,11,34,19.30
2013,06,16,11,35,19.30
2013,06,16,11,36,19.20
2013,06,16,11,37,19.10
2013,06,16,11,38,19.10
2013,06,16,11,39,19.20
2013,06,16,11,40,19.20
2013,06,16,11,41,19.20
2013,06,16,11,42,19.30
2013,06,16,11,43,19.30
2013,06,16,11,44,19.30
2013,06,16,11,45,19.30
2013,06,16,11,46,19.30
2013,06,16,11,47,19.00
2013,06,16,11,48,18.80
2013,06,16,11,49,18.60
2013,06,16,11,50,18.50
2013,06,16,11,51,18.40
2013,06,16,11,52,18.40
2013,06,16,11,53,18.40
2013,06,16,11,54,18.40
2013,06,16,11,55,18.50
2013,06,16,11,56,18.60
2013,06,16,11,57,18.70
2013,06,16,11,58,18.70
2013,06,16,11,59,18.80
2013,06,16,12,00,18.90
2013,06,16,12,01,19.10
2013,06,16,12,02,19.10
2013,06,16,12,03,19.10
2013,06,16,12,04,19.20
2013,06,16,12,05,19.20
2013,06,16,12,06,19.20
2013,06,16,12,07,19.30
2013,06,16,12,08,19.40
2013,06,16,12,09,19.60
2013,06,16,12,10,19.70
2013,06,16,12,11,19.80
2013,06,16,12,12,20.00
2013,06,16,12,13,20.10
2013,06,16,12,14,20.20
2013,06,16,12,15,20.20
2013,06,16,12,16,20.30
2013,06,16,12,17,20.40
2013,06,16,12,18,20.50
2013,06,16,12,19,20.50
2013,06,16,12,20,20.60
2013,06,16,12,21,20.60
2013,06,16,12,22,20.60
2013,06,16,12,23,20.60
2013,06,16,12,24,20.60
2013,06,16,12,25,20.60
2013,06,16,12,26,20.50
2013,06,16,12,27,20.50
2013,06,16,12,28,20.40
2013,06,16,12,29,20.30
2013,06,16,12,30,20.20
2013,06,16,12,31,20.20
2013,06,16,12,32,20.10
2013,06,16,12,33,19.90
2013,06,16,12,34,19.70
2013,06,16,12,35,19.50
2013,06,16,12,36,19.40
2013,06,16,12,37,19.40
2013,06,16,12,38,19.20
2013,06,16,12,39,19.10
2013,06,16,12,40,19.10
2013,06,16,12,41,19.10
2013,06,16,12,42,19.10
2013,06,16,12,43,19.10
2013,06,16,12,44,19.10
2013,06,16,12,45,19.10
2013,06,16,12,46,19.20
2013,06,16,12,47,19.30
2013,06,16,12,48,19.40
2013,06,16,12,49,19.50
2013,06,16,12,50,19.60
2013,06,16,12,51,19.60
2013,06,16,12,52,19.60
2013,06,16,12,53,19.60
2013,06,16,12,54,19.60
2013,06,16,12,55,19.60
2013,06,16,12,56,19.60
2013,06,16,12,57,19.60
2013,06,16,12,58,19.50
2013,06,16,12,59,19.50
2013,06,16,13,00,19.40
2013,06,16,13,01,19.40
2013,06,16,13,02,19.40
2013,06,16,13,03,19.40
2013,06,16,13,04,19.40
2013,06,16,13,05,19.50
2013,06,16,13,06,19.50
2013,06,16,13,07,19.50
2013,06,16,13,08,19.40
2013,06,16,13,09,19.40
2013,06,16,13,10,19.50
2013,06,16,13,11,19.50
2013,06,16,13,12,19.50
2013,06,16,13,13,19.40
2013,06,16,13,14,19.30
2013,06,16,13,15,19.30
2013,06,16,13,16,19.30
2013,06,16,13,17,19.40
2013,06,16,13,18,19.40
2013,06,16,13,19,19.40
2013,06,16,13,20,19.40
2013,06,16,13,21,19.30
2013,06,16,13,22,19.40
2013,06,16,13,23,19.50
2013,06,16,13,24,19.70
2013,06,16,13,25,19.80
2013,06,16,13,26,19.70
2013,06,16,13,27,19.60
2013,06,16,13,28,19.50
2013,06,16,13,29,19.50
2013,06,16,13,30,19.50
2013,06,16,13,31,19.50
2013,06,16,13,32,19.50
2013,06,16,13,33,19.60
2013,06,16,13,34,19.60
2013,06,16,13,35,19.70
2013,06,16,13,36,19.80
2013,06,16,13,37,19.80
2013,06,16,13,38,19.80
2013,06,16,13,39,19.80
2013,06,16,13,40,19.90
2013,06,16,13,41,19.90
2013,06,16,13,42,20.00
2013,06,16,13,43,20.10
2013,06,16,13,44,20.10
2013,06,16,13,45,20.00
2013,06,16,13,46,19.90
2013,06,16,13,47,19.80
2013,06,16,13,48,19.70
2013,06,16,13,49,19.60
2013,06,16,13,50,19.40
2013,06,16,13,51,19.40
2013,06,16,13,52,19.30
2013,06,16,13,53,19.30
2013,06,16,13,54,19.20
2013,06,16,13,55,19.10
2013,06,16,13,56,19.10
2013,06,16,13,57,19.10
2013,06,16,13,58,19.00
2013,06,16,13,59,19.10
2013,06,16,14,00,19.10
2013,06,16,14,01,19.10
2013,06,16,14,02,19.10
2013,06,16,14,03,19.10
2013,06,16,14,04,19.10
2013,06,16,14,05,19.10
2013,06,16,14,06,19.10
2013,06,16,14,07,19.10
2013,06,16,14,08,19.10
2013,06,16,14,09,19.20
2013,06,16,14,10,19.20
2013,06,16,14,11,19.30
2013,06,16,14,12,19.40
2013,06,16,14,13,19.60
2013,06,16,14,14,19.80
2013,06,16,14,15,20.00
2013,06,16,14,16,20.10
2013,06,16,14,17,20.20
2013,06,16,14,18,20.20
2013,06,16,14,19,20.20
2013,06,16,14,20,20.30
2013,06,16,14,21,20.40
2013,06,16,14,22,20.40
2013,06,16,14,23,20.40
2013,06,16,14,24,20.40
2013,06,16,14,25,20.50
2013,06,16,14,26,20.50
2013,06,16,14,27,20.70
2013,06,16,14,28,20.80
2013,06,16,14,29,20.90
2013,06,16,14,30,21.00
2013,06,16,14,31,21.10
2013,06,16,14,32,21.10
2013,06,16,14,33,21.10
2013,06,16,14,34,21.10
2013,06,16,14,35,21.10
2013,06,16,14,36,21.10
2013,06,16,14,37,21.10
2013,06,16,14,38,21.10
2013,06,16,14,39,21.20
2013,06,16,14,40,21.20
2013,06,16,14,41,21.30
2013,06,16,14,42,21.30
2013,06,16,14,43,21.30
2013,06,16,14,44,21.20
2013,06,16,14,45,21.20
2013,06,16,14,46,21.10
2013,06,16,14,47,21.10
2013,06,16,14,48,21.10
2013,06,16,14,49,21.20
2013,06,16,14,50,21.20
2013,06,16,14,51,21.20
2013,06,16,14,52,21.30
2013,06,16,14,53,21.20
2013,06,16,14,54,21.10
2013,06,16,14,55,21.00
2013,06,16,14,56,20.80
2013,06,16,14,57,20.80
2013,06,16,14,58,20.70
2013,06,16,14,59,20.60
2013,06,16,15,00,20.50
2013,06,16,15,01,20.40
2013,06,16,15,02,20.30
2013,06,16,15,03,20.40
2013,06,16,15,04,20.40
2013,06,16,15,05,20.40
2013,06,16,15,06,20.30
2013,06,16,15,07,20.20
2013,06,16,15,08,20.30
2013,06,16,15,09,20.30
2013,06,16,15,10,20.30
2013,06,16,15,11,20.30
2013,06,16,15,12,20.40
2013,06,16,15,13,20.50
2013,06,16,15,14,20.50
2013,06,16,15,15,20.60
2013,06,16,15,16,20.60
2013,06,16,15,17,20.60
2013,06,16,15,18,20.60
2013,06,16,15,19,20.70
2013,06,16,15,20,20.80
2013,06,16,15,21,20.80
2013,06,16,15,22,20.80
2013,06,16,15,23,20.80
2013,06,16,15,24,20.80
2013,06,16,15,25,20.90
2013,06,16,15,26,20.90
2013,06,16,15,27,21.00
2013,06,16,15,28,21.00
2013,06,16,15,29,20.90
2013,06,16,15,30,20.80
2013,06,16,15,31,20.70
2013,06,16,15,32,20.60
2013,06,16,15,33,20.60
2013,06,16,15,34,20.50
2013,06,16,15,35,20.50
2013,06,16,15,36,20.60
2013,06,16,15,37,20.60
2013,06,16,15,38,20.60
2013,06,16,15,39,20.60
2013,06,16,15,40,20.60
2013,06,16,15,41,20.60
2013,06,16,15,42,20.70
2013,06,16,15,43,20.70
2013,06,16,15,44,20.60
2013,06,16,15,45,20.50
2013,06,16,15,46,20.50
2013,06,16,15,47,20.50
2013,06,16,15,48,20.50
2013,06,16,15,49,20.40
2013,06,16,15,50,20.40
2013,06,16,15,51,20.50
2013,06,16,15,52,20.60
2013,06,16,15,53,20.70
2013,06,16,15,54,20.70
2013,06,16,15,55,20.70
2013,06,16,15,56,20.70
2013,06,16,15,57,20.60
2013,06,16,15,58,20.60
2013,06,16,15,59,20.60
2013,06,16,16,00,20.60
2013,06,16,16,01,20.50
2013,06,16,16,02,20.50
2013,06,16,16,03,20.50
2013,06,16,16,04,20.60
2013,06,16,16,05,20.60
2013,06,16,16,06,20.70
2013,06,16,16,07,20.80
2013,06,16,16,08,20.80
2013,06,16,16,09,20.90
2013,06,16,16,10,21.00
2013,06,16,16,11,21.00
2013,06,16,16,12,21.00
2013,06,16,16,13,21.00
2013,06,16,16,14,21.10
2013,06,16,16,15,21.10
2013,06,16,16,16,21.20
2013,06,16,16,17,21.20
2013,06,16,16,18,21.20
2013,06,16,16,19,21.10
2013,06,16,16,20,21.10
2013,06,16,16,21,21.10
2013,06,16,16,22,21.10
2013,06,16,16,23,21.10
2013,06,16,16,24,21.20
2013,06,16,16,25,21.30
2013,06,16,16,26,21.30
2013,06,16,16,27,21.30
2013,06,16,16,28,21.30
2013,06,16,16,29,21.30
2013,06,16,16,30,21.30
2013,06,16,16,31,21.30
2013,06,16,16,32,21.30
2013,06,16,16,33,21.30
2013,06,16,16,34,21.30
2013,06,16,16,35,21.30
2013,06,16,16,36,21.30
2013,06,16,16,37,21.30
2013,06,16,16,38,21.30
2013,06,16,16,39,21.30
2013,06,16,16,40,21.30
2013,06,16,16,41,21.30
2013,06,16,16,42,21.30
2013,06,16,16,43,21.30
2013,06,16,16,44,21.30
2013,06,16,16,45,21.30
2013,06,16,16,46,21.20
2013,06,16,16,47,21.10
2013,06,16,16,48,21.10
2013,06,16,16,49,21.10
2013,06,16,16,50,21.10
2013,06,16,16,51,21.10
2013,06,16,16,52,21.00
2013,06,16,16,53,21.10
2013,06,16,16,54,21.10
2013,06,16,16,55,21.00
2013,06,16,16,56,21.00
2013,06,16,16,57,21.00
2013,06,16,16,58,21.00
2013,06,16,16,59,21.00
2013,06,16,17,00,21.00
2013,06,16,17,01,21.00
2013,06,16,17,02,21.00
2013,06,16,17,03,21.00
2013,06,16,17,04,21.10
2013,06,16,17,05,21.10
2013,06,16,17,06,21.20
2013,06,16,17,07,21.30
2013,06,16,17,08,21.40
2013,06,16,17,09,21.40
2013,06,16,17,10,21.60
2013,06,16,17,11,21.60
2013,06,16,17,12,21.60
2013,06,16,17,13,21.60
2013,06,16,17,14,21.60
2013,06,16,17,15,21.60
2013,06,16,17,16,21.60
2013,06,16,17,17,21.50
2013,06,16,17,18,21.40
2013,06,16,17,19,21.40